Location: Ayer Observatory
(42.2600°N, 71.0700°W)
Time: 00:40:27
(UTC-04:00)

XW-2A - Pass Details

Date: 29 July 2019
Orbit: 432 x 448 km, 97.3° (Epoch: 20 August)

Event Time Altitude Azimuth Distance (km) Brightness Sun altitude
Exits shadow 20:59:16 - 180° (S) 2,383 ? -9.1°
Reaches altitude 10° 21:01:18 10° 187° (S) 1,533 ? -9.4°
Maximum altitude 21:04:27 44° 261° (W) 615 ? -9.9°
Drops below altitude 10° 21:07:39 10° 335° (NNW) 1,553 ? -10.4°
Sets 21:09:45 0° 342° (NNW) 2,430 ? -10.7°
